When you browse on this site, cookies collect data to enhance your experience and personalize the content and advertising you see.
Visit our Privacy Policy to learn more. By continuing to use the site, you agree to this use of cookies and data.
  • In United Kingdom
  • List of Countries
  • For 7 days
  • Water Temperature
  • Weather Map
  • Weather Widgets
  • user-avatar
    Login

    Hourly Weather Kakanj

    Today, 14 October, Monday

    Time Temperature Precipitation Wind Pressure Humidity
    00:00 +14°C° 0 mm 1 mps 727 mmHg 68%
    01:00 +14°C° 0 mm 1 mps 727 mmHg 69%
    02:00 +14°C° 0 mm 1 mps 727 mmHg 68%
    03:00 +14°C° 0 mm 1 mps 726 mmHg 66%
    04:00 +13°C° 0 mm 1 mps 726 mmHg 65%
    05:00 +14°C° 0 mm 1 mps 726 mmHg 64%
    06:00 +14°C° 0 mm 1 mps 726 mmHg 62%
    07:00 +15°C° 0 mm 1 mps 727 mmHg 61%
    08:00 +19°C° 0 mm 1 mps 727 mmHg 55%
    09:00 +21°C° 0 mm 1 mps 727 mmHg 48%
    10:00 +24°C° 0 mm 1 mps 727 mmHg 41%
    11:00 +25°C° 0 mm 1 mps 727 mmHg 39%
    12:00 +24°C° 0 mm 0 mps 726 mmHg 37%
    13:00 +25°C° 0 mm 0 mps 726 mmHg 35%
    14:00 +24°C° 0 mm 0 mps 726 mmHg 41%
    15:00 +22°C° 0 mm 0 mps 725 mmHg 48%
    16:00 +21°C° 0 mm 0 mps 725 mmHg 54%
    17:00 +21°C° 0 mm 1 mps 725 mmHg 57%
    18:00 +19°C° 0 mm 1 mps 725 mmHg 60%
    19:00 +16°C° 0 mm 1 mps 725 mmHg 63%
    20:00 +16°C° 0 mm 1 mps 725 mmHg 64%
    21:00 +15°C° 0 mm 1 mps 725 mmHg 65%
    22:00 +15°C° 0 mm 1 mps 724 mmHg 67%
    23:00 +14°C° 0 mm 2 mps 724 mmHg 66%

    Tomorrow, 15 October, Tuesday

    Time Temperature Precipitation Wind Pressure Humidity
    00:00 +14°C° 0 mm 2 mps 724 mmHg 65%
    01:00 +13°C° 0 mm 2 mps 724 mmHg 64%
    02:00 +13°C° 0 mm 2 mps 724 mmHg 65%
    03:00 +13°C° 0 mm 2 mps 724 mmHg 65%
    04:00 +12°C° 0 mm 2 mps 723 mmHg 65%
    05:00 +13°C° 0 mm 2 mps 723 mmHg 65%
    06:00 +13°C° 0 mm 2 mps 724 mmHg 65%
    07:00 +13°C° 0 mm 1 mps 724 mmHg 65%
    08:00 +16°C° 0 mm 1 mps 724 mmHg 57%
    09:00 +20°C° 0 mm 1 mps 724 mmHg 49%
    10:00 +22°C° 0 mm 1 mps 724 mmHg 41%
    11:00 +23°C° 0 mm 2 mps 724 mmHg 38%
    12:00 +25°C° 0 mm 2 mps 724 mmHg 35%
    13:00 +26°C° 0 mm 2 mps 724 mmHg 32%
    14:00 +25°C° 0 mm 2 mps 723 mmHg 38%
    15:00 +23°C° 0 mm 1 mps 723 mmHg 43%
    16:00 +22°C° 0 mm 1 mps 722 mmHg 49%
    17:00 +20°C° 0 mm 1 mps 722 mmHg 54%
    18:00 +18°C° 0 mm 1 mps 722 mmHg 60%
    19:00 +15°C° 0 mm 2 mps 722 mmHg 65%
    20:00 +15°C° 0 mm 2 mps 722 mmHg 67%
    21:00 +14°C° 0 mm 2 mps 722 mmHg 69%
    22:00 +14°C° 0 mm 2 mps 722 mmHg 72%
    23:00 +13°C° 0 mm 2 mps 723 mmHg 72%

    Day after tomorrow, 16 October, Wednesday

    Time Temperature Precipitation Wind Pressure Humidity
    00:00 +13°C° 0 mm 2 mps 723 mmHg 73%
    01:00 +13°C° 0 mm 2 mps 723 mmHg 73%
    02:00 +13°C° 0 mm 2 mps 723 mmHg 74%
    03:00 +12°C° 0 mm 1 mps 723 mmHg 74%
    04:00 +12°C° 0 mm 1 mps 722 mmHg 75%
    05:00 +13°C° 0 mm 1 mps 723 mmHg 74%
    06:00 +13°C° 0 mm 1 mps 723 mmHg 74%
    07:00 +13°C° 0 mm 1 mps 723 mmHg 73%
    08:00 +16°C° 0 mm 1 mps 723 mmHg 65%
    09:00 +20°C° 0 mm 1 mps 724 mmHg 58%
    10:00 +23°C° 0 mm 1 mps 724 mmHg 50%
    11:00 +24°C° 0 mm 1 mps 724 mmHg 48%
    12:00 +25°C° 0 mm 1 mps 724 mmHg 46%
    13:00 +23°C° 0 mm 0 mps 724 mmHg 44%
    14:00 +22°C° 0 mm 0 mps 724 mmHg 49%
    15:00 +21°C° 0 mm 0 mps 724 mmHg 54%
    16:00 +22°C° 0 mm 1 mps 723 mmHg 59%
    17:00 +21°C° 0 mm 1 mps 723 mmHg 63%
    18:00 +19°C° 0 mm 1 mps 724 mmHg 68%
    19:00 +16°C° 0 mm 1 mps 724 mmHg 72%
    20:00 +15°C° 0 mm 0 mps 724 mmHg 73%
    21:00 +14°C° 0 mm 0 mps 724 mmHg 75%
    22:00 +14°C° 0 mm 0 mps 724 mmHg 76%
    23:00 +13°C° 0 mm 0 mps 724 mmHg 78%

    17 October, Thursday

    Time Temperature Precipitation Wind Pressure Humidity
    00:00 +13°C° 0 mm 0 mps 724 mmHg 79%
    01:00 +13°C° 0 mm 0 mps 724 mmHg 80%
    02:00 +14°C° 0 mm 1 mps 724 mmHg 82%
    03:00 +13°C° 0 mm 1 mps 724 mmHg 83%
    04:00 +13°C° 0 mm 1 mps 724 mmHg 84%
    05:00 +14°C° 0 mm 1 mps 724 mmHg 83%
    06:00 +14°C° 0 mm 1 mps 724 mmHg 82%
    07:00 +14°C° 0 mm 1 mps 724 mmHg 81%
    08:00 +16°C° 0 mm 0 mps 724 mmHg 73%
    09:00 +18°C° 0 mm 0 mps 725 mmHg 64%
    10:00 +21°C° 0 mm 0 mps 725 mmHg 55%
    11:00 +22°C° 0 mm 0 mps 725 mmHg 52%
    12:00 +25°C° 0 mm 1 mps 724 mmHg 48%
    13:00 +26°C° 0 mm 1 mps 724 mmHg 45%
    14:00 +25°C° 0 mm 1 mps 724 mmHg 50%
    15:00 +24°C° 0 mm 1 mps 724 mmHg 55%
    16:00 +23°C° 0 mm 1 mps 724 mmHg 60%
    17:00 +21°C° 0 mm 1 mps 724 mmHg 66%
    18:00 +17°C° 0 mm 0 mps 724 mmHg 72%
    19:00 +15°C° 0 mm 0 mps 724 mmHg 77%
    20:00 +14°C° 0 mm 0 mps 724 mmHg 78%
    21:00 +14°C° 0 mm 0 mps 724 mmHg 79%
    22:00 +14°C° 0 mm 0 mps 724 mmHg 80%
    23:00 +13°C° 0 mm 0 mps 724 mmHg 81%

    18 October, Friday

    Time Temperature Precipitation Wind Pressure Humidity
    00:00 +13°C° 0 mm 0 mps 724 mmHg 82%
    01:00 +14°C° 0 mm 1 mps 724 mmHg 84%
    02:00 +13°C° 0 mm 1 mps 724 mmHg 84%
    03:00 +13°C° 0 mm 1 mps 724 mmHg 85%
    04:00 +13°C° 0 mm 1 mps 724 mmHg 86%
    05:00 +13°C° 0 mm 1 mps 724 mmHg 84%
    06:00 +14°C° 0 mm 1 mps 724 mmHg 83%
    07:00 +14°C° 0 mm 1 mps 724 mmHg 82%
    08:00 +16°C° 0 mm 0 mps 725 mmHg 73%
    09:00 +18°C° 0 mm 0 mps 725 mmHg 64%
    10:00 +21°C° 0 mm 0 mps 725 mmHg 54%
    11:00 +22°C° 0 mm 0 mps 725 mmHg 50%
    12:00 +24°C° 0 mm 1 mps 724 mmHg 46%
    13:00 +25°C° 0 mm 1 mps 724 mmHg 42%
    14:00 +24°C° 0 mm 1 mps 724 mmHg 47%
    15:00 +21°C° 0 mm 0 mps 723 mmHg 52%
    16:00 +20°C° 0 mm 0 mps 723 mmHg 57%
    17:00 +18°C° 0 mm 0 mps 723 mmHg 63%
    18:00 +18°C° 0 mm 1 mps 723 mmHg 69%
    19:00 +15°C° 0 mm 1 mps 723 mmHg 75%
    20:00 +15°C° 0 mm 1 mps 723 mmHg 77%
    21:00 +15°C° 0 mm 1 mps 723 mmHg 79%
    22:00 +14°C° 0 mm 1 mps 723 mmHg 81%
    23:00 +14°C° 0 mm 1 mps 723 mmHg 82%

    19 October, Saturday

    Time Temperature Precipitation Wind Pressure Humidity
    00:00 +13°C° 0 mm 1 mps 723 mmHg 84%
    01:00 +13°C° 0 mm 1 mps 722 mmHg 85%
    02:00 +13°C° 0 mm 1 mps 722 mmHg 86%
    03:00 +12°C° 0 mm 1 mps 722 mmHg 86%
    04:00 +12°C° 0 mm 1 mps 722 mmHg 87%
    05:00 +12°C° 0 mm 1 mps 722 mmHg 85%
    06:00 +13°C° 0 mm 1 mps 722 mmHg 84%
    07:00 +13°C° 0 mm 1 mps 722 mmHg 83%
    08:00 +15°C° 0 mm 1 mps 722 mmHg 73%
    09:00 +19°C° 0 mm 1 mps 723 mmHg 63%
    10:00 +21°C° 0 mm 1 mps 723 mmHg 53%
    11:00 +21°C° 0 mm 2 mps 723 mmHg 50%
    12:00 +23°C° 0 mm 2 mps 722 mmHg 46%
    13:00 +23°C° 0 mm 2 mps 722 mmHg 43%
    14:00 +21°C° 0 mm 2 mps 722 mmHg 48%
    15:00 +21°C° 0 mm 1 mps 722 mmHg 52%
    16:00 +20°C° 0 mm 1 mps 721 mmHg 57%
    17:00 +19°C° 0 mm 1 mps 721 mmHg 62%
    18:00 +16°C° 0 mm 1 mps 721 mmHg 67%
    19:00 +15°C° 0 mm 1 mps 721 mmHg 72%
    20:00 +14°C° 0 mm 1 mps 721 mmHg 76%
    21:00 +14°C° 0 mm 2 mps 722 mmHg 79%
    22:00 +13°C° 0 mm 2 mps 722 mmHg 82%
    23:00 +13°C° 0 mm 2 mps 721 mmHg 84%
    Show more